DELTA 1 DEB, 13536

Orbit data source: Space-Track

DELTA 1 DEB, 13536 is space debris in LEO originally from a launch on Thu, 29 Jul 1976 UTC launched from the Air Force Western Test Range (AFWTR). Debris objects in space refer to the collection of defunct objects orbiting the Earth. Examples of debris include non-operational satellites, rocket bodies, and fragments generated from explosions, collisions, or faulty payload assembly.

Loading next visibility...
Identifier
13536, 1976-077EJ
Orbit
LEO
Country
Flag of USUS
Related business
Manufacturer
Unknown
Mission
Spacecraft
Bus & Motor
Unknown
Mass
Unknown
Launch date (UTC)
1976-07-29 (50 years ago)
Launch vehicle
Unknown
Launch site
Air Force Western Test Range (AFWTR)
Object type
Payload
Rocket body
Debris
Shape & HBR
Unknown shape, 0.1 m
Radar Cross Section
Medium (>0.1 m² and <1 m²)

Expand to show TLE details & history
Last TLE update: 3 days ago

TLE from 3 days ago
0 DELTA 1 DEB
1 13536U 76077EJ  26170.73002537  .00000061  00000-0  12583-2 0  9996
2 13536 101.8027  83.7994 0422394  43.8758 345.1318 11.75922192 58353
Epoch: 2026-06-19T17:31Z
TLE epoch observation values (Epoch: 2026-06-19T17:31:14.191Z)
Latitude
27.10368°
Longitude
-93.07338°
Altitude
1,460.916 km
Speed
7.278 km/s
True Right ascension
05h 10m 45s
True Declination
26° 58' 37"
Sunlit
Object was in daylight at epoch
Visualization orbit readout
Latitude
Unknown
Longitude
Unknown
Altitude
Unknown
Speed
Unknown
Apparent Right ascension
Unknown
Apparent Declination
Unknown
Sunlit
N/A
Visualization observer readout
Local Sidereal Time
13:18:09
Azimuth
Unknown
Elevation
Unknown
Doppler factor
Unknown
Orbital elements
Apogee altitude
2,133.078 km
Perigee altitude
1,443.2 km
Semi-major axis
8,166.276 km
Eccentricity
0.04224
Inclination
101.8027°
RAAN
83.7994°
Arg. of periapsis
43.8758°
True anomaly
343.82328°
Mean anomaly
345.1318°
Eccentric anomaly
344.48441°
Mean motion
2.94108 °/min
Orbital period
122.4 mins
BSTAR
0.0012583
Loading maneuver chart data...
Computing Atmospheric mass density...
Loading historical data...
Loading historical data...
Loading historical data...
Loading historical data...
Loading historical data...
Loading historical data...
Loading historical data...

Documentation

Showing up to 5 results
|